Wind_Speed
26 25 25 25 25 23 20 19 21 22 23 24 25 26 26 27 27 27 25 25 24 24 23 22 21 20 19 18 16 15 15 14 13 12 12 11 11 11 10 11 11 11 12 12 13 13 13 14 15
28 28 27 27 26 23 20 20 21 23 23 24 25 26 26 27 26 26 25 25 24 24 23 22 21 20 20 18 17 16 15 14 13 13 12 12 11 11 11 11 11 12 13 13 13 14 14 15 16
30 30 29 28 26 23 21 22 23 23 23 23 24 25 26 25 25 25 25 25 24 23 23 22 21 21 20 19 18 16 15 14 13 13 12 12 12 12 12 12 13 13 13 14 14 15 15 16 17
33 32 31 30 27 24 24 24 24 23 23 22 23 24 24 25 25 25 25 25 24 24 23 22 21 20 19 18 18 17 16 15 14 13 13 13 13 13 13 13 14 14 14 15 15 15 16 17 17
36 35 33 31 27 26 26 26 25 24 23 23 23 23 24 25 25 25 25 25 25 24 23 22 21 20 19 19 18 17 16 15 15 14 14 14 14 14 14 14 14 14 14 15 15 16 17 17 18
38 37 36 32 29 28 28 28 27 25 24 23 23 23 24 25 26 26 25 25 25 25 24 23 22 21 20 19 18 18 17 16 16 15 15 15 15 14 15 15 14 14 15 15 16 17 17 18 19
40 40 37 35 32 30 29 30 29 27 26 24 24 24 24 25 25 26 25 25 25 25 24 23 22 21 20 20 19 19 18 17 16 16 16 15 15 15 15 15 15 15 16 16 17 18 19 20 21
42 43 40 37 34 31 31 32 31 30 28 27 26 25 25 25 25 26 25 25 24 24 24 23 23 22 21 20 19 19 18 18 17 17 16 16 16 15 15 15 16 16 16 17 18 19 20 21 23
45 46 43 38 36 33 33 33 33 32 31 29 27 26 26 26 26 26 25 25 24 23 23 23 22 22 21 20 19 18 18 18 17 17 17 16 16 16 16 16 17 17 18 18 19 21 22 23 24
48 48 43 39 38 37 36 36 36 35 33 31 29 28 28 27 27 27 26 25 24 24 24 23 22 21 20 19 19 18 18 18 18 18 17 17 17 17 17 17 18 19 19 20 21 23 24 24 25
51 48 43 42 41 40 40 39 38 38 35 33 31 30 30 29 28 28 27 26 26 25 24 24 23 21 20 19 19 19 18 18 18 18 18 18 18 18 18 19 20 20 21 22 23 24 25 26 26
52 49 46 45 44 44 43 42 42 40 37 36 35 34 32 31 30 30 28 27 27 25 24 24 23 22 21 20 20 19 19 19 19 19 19 19 19 19 19 20 21 22 23 24 25 25 26 27 27
54 51 49 47 47 47 46 45 44 43 41 40 38 36 34 33 32 31 30 29 28 27 26 25 24 24 23 22 21 20 19 19 19 19 19 19 20 20 21 22 22 23 24 25 26 26 27 28 28
54 54 53 51 50 50 49 48 48 45 43 42 41 39 37 35 34 33 31 30 29 28 27 26 25 24 24 23 22 21 20 20 20 20 20 20 21 21 22 23 23 24 25 26 26 27 27 28 29
57 57 56 55 53 52 52 53 50 46 46 45 44 41 40 38 36 34 32 32 31 30 29 27 26 25 24 24 24 23 22 21 21 21 21 21 22 23 23 24 24 25 26 27 27 28 28 29 30
59 60 59 56 55 54 56 54 50 49 48 48 46 44 43 41 38 37 35 34 33 32 30 29 27 26 26 25 24 24 23 23 23 23 23 23 23 24 24 25 25 26 27 27 28 29 29 30 31
61 62 61 58 57 56 57 56 52 52 51 49 48 47 45 43 41 39 37 36 35 34 32 31 29 28 27 27 26 25 24 24 24 24 24 24 24 25 26 26 27 27 28 29 29 30 30 31 32
59 61 61 60 58 58 58 56 54 53 53 51 50 49 48 46 43 41 40 38 37 36 34 33 32 30 29 28 28 27 26 26 26 26 26 25 26 26 27 27 28 29 29 30 31 31 32 32 33
58 59 60 59 58 59 59 58 56 55 55 54 53 52 51 48 46 45 43 41 39 38 36 34 33 32 31 30 29 29 28 28 28 27 27 27 28 28 28 29 29 30 31 31 32 32 33 33 34
59 58 59 59 59 60 61 61 59 58 57 56 55 53 52 51 49 48 46 44 41 39 38 36 35 34 33 32 31 31 31 30 29 29 29 29 29 29 29 30 31 31 32 32 33 33 33 34 34
62 59 57 58 58 60 62 64 63 60 58 58 57 55 54 53 51 49 48 45 43 42 40 38 37 36 35 34 34 33 32 31 31 31 31 31 31 31 31 32 32 33 33 33 34 34 34 34 35
63 59 56 57 58 60 62 66 65 62 60 58 57 56 55 53 52 51 49 47 45 43 41 40 39 38 37 37 36 35 33 32 32 33 33 33 33 32 33 33 33 34 34 34 34 35 35 35 35
60 58 58 57 57 58 61 66 67 64 62 59 57 56 55 54 53 51 51 49 47 45 43 41 40 40 39 38 37 36 35 34 34 35 35 34 34 34 34 34 34 34 35 35 35 36 36 36 36
57 57 57 58 58 61 61 64 68 65 62 58 56 55 55 54 53 52 51 50 49 47 45 43 42 41 40 39 39 37 36 35 36 36 36 35 35 35 35 35 35 35 35 36 36 36 36 36 37
57 57 57 58 60 62 60 63 68 64 61 58 56 55 54 54 54 52 51 50 49 48 46 44 43 42 41 40 39 38 37 37 37 37 37 36 36 35 36 35 35 35 36 36 37 36 36 36 37
57 57 58 57 58 59 59 62 64 60 58 57 55 54 54 54 53 52 51 50 49 48 47 46 45 43 42 41 40 39 38 38 37 37 37 37 37 37 37 36 36 36 36 36 37 36 36 37 37
55 57 55 53 53 54 57 59 61 58 56 56 56 54 54 53 53 52 51 50 49 48 47 46 45 43 42 41 40 40 39 39 38 37 37 37 37 37 37 36 36 36 36 36 37 36 36 37 37
54 54 54 55 52 53 55 56 58 55 53 52 53 54 53 52 52 52 51 50 49 48 47 46 45 44 43 42 41 40 40 39 38 38 38 38 38 37 37 37 36 36 36 37 37 37 37 37 38
51 55 55 55 54 51 50 51 52 50 49 49 50 51 52 51 51 50 50 49 49 48 47 46 45 44 43 42 41 41 40 39 39 39 38 38 38 38 37 37 36 36 36 37 36 37 37 38 38
47 52 56 56 55 52 48 46 47 45 44 45 47 49 50 50 50 49 49 48 48 48 47 46 45 44 43 42 41 41 40 39 39 38 38 38 38 38 37 36 36 36 36 37 37 37 38 38 39
Wind_Direction
245 244 242 240 240 240 238 235 232 229 227 227 227 227 227 227 226 226 223 223 223 223 223 222 223 224 226 228 230 232 235 239 242 244 246 251 256 261 266 271 275 279 283 285 287 288 291 293 294
244 242 241 240 239 238 235 233 230 227 226 226 226 225 225 226 225 224 224 223 223 223 223 222 223 224 226 228 230 232 235 238 241 243 246 251 256 262 267 271 276 281 284 286 287 289 291 293 294
243 242 241 239 237 236 233 231 228 227 226 226 225 225 225 224 224 223 222 222 222 222 223 223 223 224 226 228 230 232 235 238 240 243 248 254 259 263 269 274 279 282 285 288 289 291 293 295 296
242 241 240 238 234 232 231 229 228 226 226 226 224 223 222 222 222 221 221 220 221 221 222 222 223 224 225 227 230 233 235 238 241 245 251 256 262 267 272 276 279 282 286 288 290 292 294 295 297
241 240 239 236 232 229 229 228 226 226 224 223 223 221 220 219 218 218 219 219 220 221 221 222 223 225 227 230 232 236 237 239 243 247 252 257 263 268 271 275 278 282 286 289 291 293 295 296 297
240 239 237 234 231 228 226 226 225 224 222 221 221 219 217 216 217 217 217 218 219 220 220 222 224 226 229 232 236 238 239 241 243 247 252 258 262 267 271 274 277 281 286 289 291 293 295 296 297
240 238 236 232 229 226 224 224 223 223 221 220 220 217 214 215 215 215 215 216 218 220 222 224 225 227 230 233 237 238 239 240 243 248 253 258 262 267 270 273 277 282 287 290 292 294 295 297 298
238 237 234 231 228 225 224 223 223 223 222 220 218 216 215 213 212 212 213 215 217 220 222 224 225 226 229 233 235 236 237 241 244 249 253 257 262 266 270 275 279 283 287 289 292 294 296 297 298
237 236 233 230 228 225 223 223 223 222 221 220 218 217 215 213 211 211 212 215 217 219 220 222 224 225 228 230 232 234 237 242 246 250 254 258 261 265 271 277 280 283 286 289 292 294 297 298 299
237 235 232 230 228 225 222 222 221 221 220 219 218 216 214 213 211 211 212 214 216 218 218 219 221 224 226 229 232 235 239 243 247 252 255 258 262 267 272 277 280 283 287 289 292 295 297 298 299
237 235 232 229 227 225 223 221 221 221 220 219 218 215 214 213 211 211 212 214 215 216 217 219 221 223 226 230 233 237 241 245 249 253 257 260 265 269 274 278 281 284 288 290 292 295 297 298 299
238 234 232 228 226 225 223 221 221 220 219 218 217 215 213 212 212 212 213 214 215 216 217 220 222 225 228 231 236 240 244 247 251 255 258 262 266 271 276 279 282 286 288 291 293 295 297 298 299
236 234 231 228 226 224 223 222 221 220 218 218 218 216 215 214 213 214 215 215 215 217 219 221 223 227 230 234 239 242 246 249 253 256 259 263 268 273 277 280 283 287 289 291 293 295 296 298 300
235 234 231 228 226 224 224 222 221 219 219 219 219 217 216 216 216 216 217 218 218 219 221 223 225 229 232 236 239 242 246 250 254 257 261 266 270 274 278 281 285 288 289 291 293 295 296 298 300
234 233 231 228 226 224 225 223 221 219 220 219 219 218 217 217 217 217 218 219 220 222 223 225 228 231 234 237 240 243 248 252 255 259 263 267 271 275 279 283 286 288 289 291 293 296 297 299 300
233 233 231 227 226 225 226 223 221 221 220 220 219 219 219 218 218 219 220 221 222 224 226 228 230 233 236 238 241 245 249 253 256 260 264 269 273 277 280 283 286 287 289 291 294 296 298 299 300
231 232 231 228 227 226 227 224 221 222 221 220 220 220 220 219 219 220 221 223 224 226 229 230 232 235 238 240 243 247 251 255 258 261 265 269 273 277 280 283 285 287 289 291 294 296 297 298 300
233 233 232 230 228 228 227 225 222 223 223 221 220 220 221 220 220 222 223 225 226 228 230 232 234 237 240 242 245 249 252 256 259 262 265 270 273 277 279 282 284 286 289 291 293 295 297 298 299
233 233 232 230 230 230 228 227 224 223 223 222 221 221 221 221 221 222 224 226 228 230 232 234 236 239 242 244 247 250 253 256 259 262 266 270 273 276 279 281 283 286 289 291 293 295 296 297 298
231 231 231 229 229 230 229 228 226 224 223 222 222 222 222 222 222 223 225 227 229 231 233 235 238 240 243 245 248 251 253 256 259 263 266 270 274 276 278 280 283 285 288 290 292 294 295 296 297
229 229 229 229 230 231 230 229 226 225 224 223 222 222 223 223 224 225 226 228 230 232 234 236 238 240 243 246 249 252 254 257 260 263 266 270 272 275 278 280 282 285 287 289 291 293 294 295 297
228 228 229 229 230 231 230 231 226 225 225 224 223 223 223 224 225 226 227 229 230 232 234 236 238 241 244 247 250 252 254 256 259 262 265 268 272 275 277 279 281 284 286 288 290 292 293 295 296
227 227 228 229 231 233 231 233 226 226 225 224 224 224 225 225 226 227 229 230 231 232 234 237 239 241 244 247 249 251 254 256 259 262 265 268 272 274 276 278 281 283 285 287 289 291 292 294 295
225 225 227 228 230 233 230 233 230 226 225 225 225 225 226 227 227 228 229 230 231 233 235 237 239 241 244 246 249 252 254 256 259 262 265 268 271 273 275 277 280 282 284 286 288 290 291 292 295
222 222 225 228 229 232 230 233 231 226 225 226 226 226 227 228 229 229 230 231 232 233 235 237 239 242 244 247 249 252 254 256 259 262 265 267 270 272 274 276 279 281 283 285 287 289 290 292 295
221 221 222 227 230 232 231 233 232 228 226 226 226 227 228 229 229 229 231 232 233 234 235 237 239 242 244 247 249 251 253 256 259 262 264 267 269 271 273 275 278 280 282 284 286 288 290 292 294
221 221 222 226 230 232 233 233 232 229 227 226 226 227 227 228 229 230 231 232 234 235 236 238 239 241 243 246 248 251 253 255 258 260 263 265 268 270 272 275 277 279 281 283 285 287 289 291 293
221 220 221 224 227 231 234 233 231 229 229 227 226 227 228 228 229 230 231 232 234 235 236 238 239 241 243 245 248 250 252 254 256 259 261 264 267 269 271 274 276 279 280 282 285 287 289 290 292
218 218 220 224 228 230 233 232 228 230 229 227 226 226 227 228 229 230 231 232 233 235 236 237 240 241 243 245 248 250 251 253 255 258 260 263 265 268 270 273 276 278 280 282 284 286 288 290 291
219 220 221 222 224 227 230 231 227 228 227 225 223 223 225 226 227 229 230 231 233 235 236 238 240 242 244 246 247 248 250 252 254 256 259 262 265 267 270 273 275 278 280 282 284 286 288 289 291
Height
5828 5829 5830 5831 5833 5834 5835 5837 5837 5838 5839 5841 5843 5845 5848 5851 5854 5858 5859 5859 5861 5863 5865 5867 5869 5871 5872 5873 5875 5876 5876 5877 5878 5878 5879 5879 5879 5879 5879 5879 5878 5877 5877 5876 5875 5874 5873 5872 5871
5822 5823 5825 5826 5828 5830 5832 5833 5833 5834 5836 5837 5839 5841 5843 5846 5848 5851 5853 5855 5858 5860 5862 5864 5866 5868 5869 5871 5872 5873 5874 5875 5876 5876 5877 5877 5877 5877 5877 5876 5876 5875 5874 5873 5873 5872 5871 5870 5868
5816 5817 5819 5821 5823 5826 5828 5828 5829 5830 5832 5833 5835 5837 5839 5842 5845 5847 5850 5852 5855 5857 5859 5861 5863 5865 5867 5868 5870 5871 5872 5873 5873 5874 5875 5875 5875 5875 5874 5874 5874 5873 5872 5871 5870 5869 5868 5867 5866
5810 5812 5814 5817 5819 5822 5823 5824 5825 5826 5828 5830 5831 5833 5836 5839 5841 5844 5846 5849 5851 5854 5856 5858 5860 5862 5864 5865 5867 5868 5869 5870 5871 5872 5872 5872 5872 5872 5872 5871 5871 5870 5869 5868 5867 5866 5865 5864 5863
5802 5805 5807 5810 5814 5817 5818 5819 5820 5822 5824 5826 5827 5830 5832 5835 5837 5839 5842 5845 5848 5850 5853 5855 5857 5859 5861 5862 5864 5865 5866 5867 5868 5869 5869 5870 5870 5869 5869 5869 5868 5867 5866 5865 5864 5863 5862 5861 5859
5795 5798 5801 5804 5808 5811 5813 5814 5816 5818 5820 5822 5824 5826 5828 5831 5833 5836 5838 5841 5844 5847 5849 5851 5853 5856 5858 5859 5861 5862 5863 5864 5865 5866 5866 5867 5867 5866 5866 5866 5865 5864 5863 5862 5861 5860 5859 5857 5856
5788 5790 5793 5798 5802 5805 5808 5808 5811 5813 5816 5818 5819 5822 5824 5827 5829 5832 5835 5837 5840 5843 5845 5848 5850 5852 5854 5856 5857 5859 5860 5861 5862 5863 5863 5864 5864 5863 5863 5863 5862 5861 5860 5859 5858 5857 5855 5854 5852
5778 5781 5785 5790 5795 5800 5801 5803 5805 5808 5811 5813 5815 5818 5821 5823 5825 5828 5831 5834 5837 5839 5842 5844 5846 5848 5850 5852 5854 5855 5857 5858 5859 5859 5860 5860 5860 5860 5860 5859 5859 5858 5857 5856 5854 5853 5852 5850 5848
5767 5772 5778 5784 5789 5793 5795 5796 5799 5802 5805 5808 5811 5814 5817 5819 5821 5824 5827 5830 5833 5836 5838 5840 5843 5845 5847 5848 5850 5852 5853 5854 5855 5856 5856 5856 5857 5856 5856 5856 5855 5854 5853 5852 5851 5849 5847 5846 5844
5757 5762 5772 5777 5781 5784 5787 5789 5792 5796 5799 5803 5806 5809 5812 5814 5817 5820 5823 5826 5829 5832 5834 5836 5839 5841 5843 5845 5846 5848 5849 5850 5851 5852 5852 5853 5853 5853 5852 5852 5851 5850 5849 5848 5846 5845 5843 5841 5839
5747 5755 5763 5767 5771 5774 5778 5782 5785 5789 5793 5798 5801 5804 5806 5810 5813 5816 5819 5822 5825 5827 5830 5833 5835 5837 5839 5841 5843 5844 5846 5847 5847 5848 5849 5849 5849 5849 5848 5847 5847 5846 5845 5843 5842 5840 5838 5836 5834
5738 5745 5751 5756 5760 5765 5769 5773 5777 5782 5787 5791 5794 5797 5801 5804 5808 5811 5814 5817 5820 5823 5826 5829 5831 5833 5835 5837 5839 5841 5842 5843 5843 5844 5844 5845 5845 5844 5844 5843 5842 5841 5840 5839 5837 5835 5833 5831 5829
5725 5734 5739 5745 5750 5755 5759 5764 5769 5774 5779 5783 5787 5791 5795 5799 5803 5806 5809 5812 5815 5819 5822 5824 5827 5829 5831 5833 5835 5836 5837 5838 5839 5840 5840 5840 5840 5840 5840 5839 5838 5837 5835 5834 5832 5830 5828 5826 5824
5715 5720 5726 5732 5738 5744 5749 5754 5759 5767 5772 5776 5780 5785 5789 5793 5797 5800 5804 5807 5811 5814 5817 5819 5822 5824 5827 5829 5830 5832 5833 5834 5835 5835 5836 5836 5836 5835 5835 5834 5833 5832 5830 5829 5827 5825 5823 5821 5818
5701 5707 5713 5720 5728 5734 5738 5743 5752 5760 5763 5768 5772 5778 5782 5787 5791 5795 5798 5802 5805 5808 5811 5814 5817 5819 5822 5823 5825 5827 5828 5829 5830 5830 5831 5831 5831 5830 5830 5829 5828 5826 5825 5823 5821 5819 5817 5815 5812
5687 5692 5699 5711 5717 5723 5727 5735 5745 5749 5753 5759 5764 5770 5775 5780 5784 5788 5792 5795 5799 5802 5806 5809 5811 5814 5816 5818 5820 5822 5823 5824 5825 5825 5826 5826 5826 5825 5824 5823 5822 5821 5819 5817 5816 5814 5812 5809 5807
5672 5680 5690 5700 5706 5711 5715 5725 5735 5738 5743 5750 5756 5761 5767 5772 5777 5781 5785 5789 5792 5796 5800 5803 5806 5808 5810 5813 5814 5816 5817 5819 5819 5820 5820 5820 5820 5819 5818 5817 5816 5815 5813 5812 5810 5808 5806 5803 5801
5664 5672 5679 5687 5695 5700 5705 5714 5724 5728 5733 5740 5746 5752 5758 5764 5770 5774 5778 5782 5785 5789 5793 5796 5799 5802 5804 5806 5809 5810 5812 5813 5813 5814 5814 5814 5814 5813 5812 5811 5810 5809 5807 5806 5804 5802 5799 5797 5794
5653 5658 5666 5676 5683 5687 5694 5701 5710 5716 5721 5729 5736 5742 5749 5755 5761 5765 5770 5774 5778 5782 5786 5790 5793 5796 5798 5800 5803 5804 5805 5806 5807 5807 5808 5808 5807 5807 5806 5805 5804 5803 5801 5799 5797 5795 5793 5790 5787
5637 5644 5653 5662 5669 5674 5681 5687 5695 5702 5710 5718 5725 5732 5739 5746 5751 5756 5761 5766 5770 5775 5779 5782 5786 5788 5791 5794 5796 5797 5798 5799 5800 5801 5801 5801 5801 5800 5800 5799 5797 5796 5795 5793 5791 5788 5786 5784 5781
5623 5632 5642 5650 5656 5660 5667 5672 5681 5690 5698 5706 5714 5722 5729 5736 5742 5748 5753 5758 5763 5767 5771 5775 5778 5781 5784 5786 5788 5789 5791 5792 5794 5794 5794 5794 5794 5793 5793 5792 5790 5789 5788 5786 5784 5782 5779 5777 5774
5611 5623 5631 5637 5642 5646 5653 5657 5669 5679 5686 5695 5704 5712 5720 5727 5733 5739 5744 5749 5754 5759 5763 5766 5770 5773 5775 5778 5780 5782 5784 5786 5786 5786 5786 5786 5786 5786 5785 5785 5783 5782 5780 5779 5777 5774 5772 5770 5767
5602 5613 5618 5624 5629 5633 5639 5643 5656 5665 5673 5685 5695 5703 5710 5717 5723 5729 5735 5740 5745 5749 5753 5757 5761 5764 5767 5770 5772 5774 5776 5778 5778 5779 5779 5779 5779 5779 5778 5777 5776 5775 5773 5771 5769 5767 5765 5762 5760
5590 5598 5604 5610 5614 5616 5627 5631 5640 5654 5666 5678 5686 5694 5700 5707 5713 5719 5724 5729 5735 5740 5744 5748 5752 5755 5758 5761 5764 5766 5768 5769 5770 5771 5771 5771 5771 5771 5770 5770 5769 5767 5766 5764 5762 5760 5757 5755 5752
5574 5583 5590 5594 5597 5604 5617 5618 5628 5647 5659 5668 5676 5683 5689 5695 5702 5708 5713 5719 5725 5730 5735 5739 5743 5747 5750 5752 5755 5758 5760 5761 5762 5762 5763 5763 5763 5763 5762 5762 5761 5760 5758 5756 5754 5752 5750 5747 5744
5563 5571 5579 5585 5591 5599 5605 5606 5622 5638 5648 5656 5664 5671 5677 5684 5690 5697 5703 5709 5714 5719 5724 5729 5733 5737 5741 5744 5747 5749 5751 5752 5753 5754 5755 5755 5755 5755 5754 5754 5753 5752 5750 5748 5746 5744 5742 5739 5736
5552 5559 5571 5577 5582 5588 5592 5601 5613 5625 5635 5644 5653 5659 5666 5673 5680 5686 5693 5698 5704 5709 5714 5719 5724 5728 5731 5734 5737 5739 5742 5743 5745 5746 5746 5746 5746 5746 5746 5745 5745 5743 5742 5740 5738 5736 5734 5731 5728
5543 5553 5559 5564 5570 5576 5583 5591 5603 5615 5624 5634 5641 5649 5656 5662 5669 5675 5681 5687 5693 5699 5704 5709 5713 5718 5722 5725 5727 5730 5732 5734 5736 5736 5737 5738 5738 5738 5737 5737 5736 5735 5734 5732 5730 5728 5725 5723 5720
5533 5540 5546 5554 5561 5569 5575 5585 5597 5606 5615 5623 5631 5639 5645 5652 5658 5664 5671 5677 5683 5688 5694 5699 5703 5708 5712 5715 5718 5721 5723 5725 5726 5727 5729 5729 5729 5729 5729 5728 5727 5726 5725 5723 5722 5719 5717 5714 5712
5524 5530 5537 5545 5552 5560 5568 5580 5587 5597 5604 5612 5620 5627 5634 5641 5647 5654 5660 5666 5672 5678 5684 5689 5694 5698 5702 5706 5709 5711 5713 5715 5717 5719 5720 5720 5720 5720 5720 5720 5719 5718 5717 5715 5713 5711 5709 5706 5703